When you browse on this site, cookies collect data to enhance your experience and personalize the content and advertising you see.
Visit our Privacy Policy to learn more. By continuing to use the site, you agree to this use of cookies and data.
  • In United Kingdom
  • List of Countries
  • For 7 days
  • Water Temperature
  • Satellite Maps
  • Weather Map
  • Weather Widgets
  • user-avatar
    Login

    Hourly Weather Wien

    Today, 23 April, Tuesday

    Time Temperature Precipitation Wind Pressure Humidity
    00:00 +10°C° 0 mm 6 mps 740 mmHg 76%
    01:00 +11°C° 0 mm 4 mps 740 mmHg 74%
    02:00 +10°C° 0.1 mm 5 mps 740 mmHg 78%
    03:00 +10°C° 0.1 mm 5 mps 739 mmHg 81%
    04:00 +10°C° 0.1 mm 6 mps 739 mmHg 84%
    05:00 +10°C° 0.1 mm 6 mps 739 mmHg 84%
    06:00 +9°C° 0.1 mm 7 mps 739 mmHg 83%
    07:00 +9°C° 0.1 mm 7 mps 738 mmHg 83%
    08:00 +10°C° 0 mm 7 mps 738 mmHg 81%
    09:00 +10°C° 0 mm 7 mps 738 mmHg 79%
    10:00 +11°C° 0 mm 7 mps 738 mmHg 78%
    11:00 +10°C° 0.8 mm 7 mps 738 mmHg 81%
    12:00 +10°C° 0.8 mm 8 mps 738 mmHg 85%
    13:00 +10°C° 0.8 mm 8 mps 738 mmHg 88%
    14:00 +10°C° 0.4 mm 8 mps 738 mmHg 87%
    15:00 +8°C° 0.4 mm 9 mps 738 mmHg 87%
    16:00 +8°C° 0.4 mm 9 mps 738 mmHg 86%
    17:00 +8°C° 0.1 mm 9 mps 738 mmHg 87%
    18:00 +8°C° 0.1 mm 9 mps 738 mmHg 87%
    19:00 +9°C° 0.1 mm 8 mps 738 mmHg 88%
    20:00 +9°C° 0.1 mm 8 mps 738 mmHg 87%
    21:00 +9°C° 0.1 mm 8 mps 738 mmHg 87%
    22:00 +9°C° 0.1 mm 8 mps 738 mmHg 86%
    23:00 +9°C° 0 mm 7 mps 738 mmHg 87%

    Tomorrow, 24 April, Wednesday

    Time Temperature Precipitation Wind Pressure Humidity
    00:00 +10°C° 0 mm 7 mps 738 mmHg 87%
    01:00 +10°C° 0 mm 7 mps 738 mmHg 88%
    02:00 +10°C° 0 mm 7 mps 738 mmHg 88%
    03:00 +10°C° 0 mm 7 mps 738 mmHg 88%
    04:00 +10°C° 0 mm 7 mps 738 mmHg 89%
    05:00 +10°C° 0 mm 7 mps 738 mmHg 87%
    06:00 +11°C° 0 mm 7 mps 738 mmHg 86%
    07:00 +11°C° 0 mm 7 mps 738 mmHg 84%
    08:00 +14°C° 0 mm 7 mps 739 mmHg 76%
    09:00 +17°C° 0 mm 7 mps 739 mmHg 69%
    10:00 +20°C° 0 mm 7 mps 739 mmHg 61%
    11:00 +21°C° 0 mm 8 mps 739 mmHg 57%
    12:00 +22°C° 0 mm 8 mps 739 mmHg 52%
    13:00 +24°C° 0 mm 8 mps 739 mmHg 48%
    14:00 +24°C° 0 mm 7 mps 739 mmHg 47%
    15:00 +24°C° 0 mm 7 mps 739 mmHg 46%
    16:00 +24°C° 0 mm 7 mps 739 mmHg 46%
    17:00 +23°C° 0 mm 7 mps 739 mmHg 50%
    18:00 +21°C° 0 mm 6 mps 739 mmHg 54%
    19:00 +19°C° 0 mm 6 mps 739 mmHg 57%
    20:00 +19°C° 0 mm 6 mps 739 mmHg 59%
    21:00 +17°C° 0 mm 5 mps 739 mmHg 60%
    22:00 +16°C° 0 mm 5 mps 740 mmHg 61%
    23:00 +15°C° 0 mm 4 mps 740 mmHg 65%

    Day after tomorrow, 25 April, Thursday

    Time Temperature Precipitation Wind Pressure Humidity
    00:00 +14°C° 0 mm 3 mps 740 mmHg 69%
    01:00 +14°C° 0 mm 2 mps 740 mmHg 72%
    02:00 +14°C° 0 mm 1 mps 740 mmHg 74%
    03:00 +13°C° 0 mm 1 mps 741 mmHg 77%
    04:00 +13°C° 0 mm 1 mps 741 mmHg 79%
    05:00 +14°C° 0 mm 1 mps 741 mmHg 75%
    06:00 +15°C° 0 mm 1 mps 742 mmHg 71%
    07:00 +15°C° 0 mm 0 mps 742 mmHg 67%
    08:00 +19°C° 0 mm 1 mps 742 mmHg 62%
    09:00 +19°C° 0 mm 2 mps 742 mmHg 56%
    10:00 +21°C° 0 mm 3 mps 742 mmHg 51%
    11:00 +24°C° 0 mm 3 mps 742 mmHg 48%
    12:00 +25°C° 0 mm 4 mps 742 mmHg 45%
    13:00 +26°C° 0 mm 4 mps 742 mmHg 42%
    14:00 +27°C° 0 mm 4 mps 742 mmHg 40%
    15:00 +28°C° 0 mm 4 mps 741 mmHg 39%
    16:00 +28°C° 0 mm 4 mps 741 mmHg 37%
    17:00 +26°C° 0 mm 4 mps 741 mmHg 41%
    18:00 +25°C° 0 mm 5 mps 741 mmHg 44%
    19:00 +22°C° 0 mm 5 mps 741 mmHg 47%
    20:00 +21°C° 0 mm 4 mps 741 mmHg 49%
    21:00 +20°C° 0 mm 4 mps 741 mmHg 51%
    22:00 +19°C° 0 mm 3 mps 741 mmHg 53%
    23:00 +18°C° 0 mm 3 mps 741 mmHg 53%

    26 April, Friday

    Time Temperature Precipitation Wind Pressure Humidity
    00:00 +18°C° 0 mm 3 mps 741 mmHg 53%
    01:00 +17°C° 0 mm 2 mps 741 mmHg 54%
    02:00 +16°C° 0 mm 2 mps 741 mmHg 56%
    03:00 +16°C° 0 mm 1 mps 741 mmHg 59%
    04:00 +15°C° 0 mm 1 mps 741 mmHg 61%
    05:00 +16°C° 0 mm 1 mps 741 mmHg 61%
    06:00 +16°C° 0 mm 0 mps 741 mmHg 60%
    07:00 +17°C° 0 mm 0 mps 741 mmHg 60%
    08:00 +21°C° 0 mm 1 mps 741 mmHg 53%
    09:00 +24°C° 0 mm 3 mps 741 mmHg 47%
    10:00 +26°C° 0 mm 4 mps 741 mmHg 41%
    11:00 +27°C° 0 mm 5 mps 740 mmHg 37%
    12:00 +28°C° 0 mm 6 mps 740 mmHg 33%
    13:00 +30°C° 0 mm 6 mps 739 mmHg 29%
    14:00 +29°C° 0 mm 6 mps 739 mmHg 31%
    15:00 +29°C° 0 mm 6 mps 739 mmHg 33%
    16:00 +28°C° 0 mm 5 mps 738 mmHg 35%
    17:00 +26°C° 0 mm 6 mps 739 mmHg 43%
    18:00 +22°C° 0 mm 6 mps 739 mmHg 50%
    19:00 +20°C° 0 mm 6 mps 739 mmHg 58%
    20:00 +17°C° 0 mm 7 mps 740 mmHg 60%
    21:00 +15°C° 0 mm 7 mps 741 mmHg 63%
    22:00 +11°C° 0 mm 8 mps 741 mmHg 65%
    23:00 +11°C° 0.6 mm 8 mps 742 mmHg 69%

    27 April, Saturday

    Time Temperature Precipitation Wind Pressure Humidity
    00:00 +10°C° 0.6 mm 8 mps 742 mmHg 73%
    01:00 +9°C° 0.6 mm 8 mps 743 mmHg 76%
    02:00 +9°C° 1.6 mm 7 mps 743 mmHg 76%
    03:00 +9°C° 1.6 mm 6 mps 743 mmHg 77%
    04:00 +8°C° 1.6 mm 6 mps 743 mmHg 77%
    05:00 +8°C° 0.1 mm 6 mps 744 mmHg 76%
    06:00 +8°C° 0.1 mm 6 mps 744 mmHg 76%
    07:00 +8°C° 0.1 mm 6 mps 744 mmHg 75%
    08:00 +9°C° 0.2 mm 6 mps 744 mmHg 75%
    09:00 +10°C° 0.2 mm 5 mps 744 mmHg 75%
    10:00 +10°C° 0.2 mm 5 mps 745 mmHg 76%
    11:00 +13°C° 0.1 mm 6 mps 745 mmHg 69%
    12:00 +14°C° 0.1 mm 6 mps 745 mmHg 61%
    13:00 +15°C° 0.1 mm 6 mps 745 mmHg 54%
    14:00 +16°C° 0 mm 6 mps 745 mmHg 51%
    15:00 +17°C° 0 mm 6 mps 744 mmHg 48%
    16:00 +17°C° 0 mm 5 mps 744 mmHg 45%
    17:00 +16°C° 0 mm 5 mps 744 mmHg 52%
    18:00 +14°C° 0 mm 5 mps 745 mmHg 60%
    19:00 +13°C° 0 mm 5 mps 745 mmHg 67%
    20:00 +12°C° 0 mm 5 mps 745 mmHg 68%
    21:00 +12°C° 0 mm 5 mps 746 mmHg 70%
    22:00 +10°C° 0 mm 5 mps 746 mmHg 71%
    23:00 +10°C° 0 mm 5 mps 746 mmHg 71%

    28 April, Sunday

    Time Temperature Precipitation Wind Pressure Humidity
    00:00 +10°C° 0 mm 4 mps 746 mmHg 71%
    01:00 +10°C° 0 mm 4 mps 746 mmHg 71%
    02:00 +10°C° 0 mm 4 mps 746 mmHg 72%
    03:00 +9°C° 0 mm 3 mps 746 mmHg 73%
    04:00 +9°C° 0 mm 3 mps 745 mmHg 75%
    05:00 +10°C° 0 mm 2 mps 745 mmHg 70%
    06:00 +12°C° 0 mm 2 mps 745 mmHg 65%
    07:00 +13°C° 0 mm 2 mps 744 mmHg 61%
    08:00 +13°C° 0.1 mm 3 mps 745 mmHg 59%
    09:00 +13°C° 0.1 mm 4 mps 745 mmHg 56%
    10:00 +14°C° 0.1 mm 6 mps 745 mmHg 54%
    11:00 +13°C° 0.4 mm 6 mps 745 mmHg 56%
    12:00 +10°C° 0.4 mm 6 mps 745 mmHg 58%
    13:00 +9°C° 0.4 mm 7 mps 745 mmHg 59%
    14:00 +8°C° 0.7 mm 6 mps 745 mmHg 65%
    15:00 +7°C° 0.7 mm 5 mps 745 mmHg 70%
    16:00 +8°C° 0.7 mm 3 mps 745 mmHg 75%
    17:00 +8°C° 0.1 mm 3 mps 745 mmHg 75%
    18:00 +8°C° 0.1 mm 3 mps 746 mmHg 75%
    19:00 +8°C° 0.1 mm 3 mps 746 mmHg 74%
    20:00 +8°C° 0 mm 3 mps 746 mmHg 74%
    21:00 +6°C° 0 mm 4 mps 746 mmHg 73%
    22:00 +6°C° 0 mm 4 mps 746 mmHg 72%
    23:00 +6°C° 0 mm 4 mps 746 mmHg 73%
    Show more